| time (UTC) | temp F | wind direction | speed knots | gust knots | rain 1hr in | rain 24hr in | rain mn in | humidity % | barometer mb |
| 20260506201548 | 66 | 206 | 0.0 | 4.3 | 0.00 | 0.01 | 0.01 | 77 | 1006.6 |
| 20260506200045 | 65 | 240 | 1.7 | 7.0 | 0.00 | 0.01 | 0.01 | 77 | 1006.6 |
| 20260506194547 | 65 | 247 | 0.0 | 3.5 | 0.00 | 0.01 | 0.01 | 77 | 1007.0 |
| 20260506193048 | 66 | 245 | 1.7 | 5.2 | 0.00 | 0.01 | 0.01 | 76 | 1007.2 |
| 20260506191549 | 67 | 283 | 0.9 | 4.3 | 0.00 | 0.01 | 0.01 | 73 | 1007.0 |
| 20260506190050 | 66 | 274 | 0.9 | 6.1 | 0.00 | 0.01 | 0.01 | 74 | 1007.1 |
| 20260506184558 | 66 | 227 | 2.6 | 9.6 | 0.00 | 0.01 | 0.01 | 73 | 1007.1 |
| 20260506183048 | 66 | 193 | 1.7 | 7.0 | 0.00 | 0.01 | 0.01 | 74 | 1007.3 |
| 20260506181548 | 68 | 219 | 1.7 | 7.8 | 0.00 | 0.01 | 0.01 | 71 | 1007.4 |
| 20260506180056 | 70 | 245 | 1.7 | 6.1 | 0.00 | 0.01 | 0.01 | 67 | 1007.5 |
| 20260506174547 | 70 | 264 | 2.6 | 6.1 | 0.00 | 0.01 | 0.01 | 68 | 1007.5 |
| 20260506173049 | 69 | 216 | 1.7 | 5.2 | 0.00 | 0.01 | 0.01 | 71 | 1007.2 |
| 20260506171557 | 67 | 203 | 0.9 | 5.2 | 0.01 | 0.01 | 0.01 | 73 | 1007.7 |
| 20260506170053 | 66 | 208 | 0.0 | 2.6 | 0.01 | 0.01 | 0.01 | 76 | 1007.9 |
| 20260506164551 | 66 | 267 | 0.0 | 3.5 | 0.01 | 0.01 | 0.01 | 76 | 1008.5 |
| 20260506163052 | 66 | 122 | 0.0 | 2.6 | 0.01 | 0.01 | 0.01 | 76 | 1008.9 |
| 20260506161549 | 66 | 244 | 0.0 | 4.3 | 0.00 | 0.00 | 0.00 | 73 | 1009.0 |
| 20260506160059 | 69 | 230 | 2.6 | 6.1 | 0.00 | 0.00 | 0.00 | 67 | 1009.2 |
| 20260506154551 | 71 | 276 | 0.9 | 4.3 | 0.00 | 0.00 | 0.00 | 61 | 1009.0 |
| 20260506153049 | 71 | 294 | 0.9 | 7.8 | 0.00 | 0.00 | 0.00 | 62 | 1009.0 |
| 20260506151557 | 70 | 199 | 0.9 | 8.7 | 0.00 | 0.00 | 0.00 | 63 | 1008.9 |
| 20260506150047 | 71 | 232 | 2.6 | 7.0 | 0.00 | 0.00 | 0.00 | 62 | 1009.1 |
| 20260506144559 | 71 | 17 | 1.7 | 7.0 | 0.00 | 0.00 | 0.00 | 61 | 1009.0 |
| 20260506143050 | 72 | 262 | 0.9 | 7.0 | 0.00 | 0.00 | 0.00 | 63 | 1009.1 |
| 20260506141550 | 71 | 293 | 0.9 | 4.3 | 0.00 | 0.00 | 0.00 | 64 | 1008.9 |
| 20260506140046 | 71 | 231 | 0.9 | 5.2 | 0.00 | 0.00 | 0.00 | 63 | 1008.8 |
| 20260506134546 | 71 | 258 | 1.7 | 6.1 | 0.00 | 0.00 | 0.00 | 63 | 1008.8 |
| 20260506133047 | 71 | 229 | 2.6 | 8.7 | 0.00 | 0.00 | 0.00 | 63 | 1009.1 |
| 20260506131605 | 70 | 291 | 2.6 | 7.8 | 0.00 | 0.00 | 0.00 | 66 | 1009.4 |
| 20260506130046 | 69 | 259 | 0.9 | 6.1 | 0.00 | 0.00 | 0.00 | 68 | 1009.3 |
| 20260506124547 | 67 | 311 | 0.9 | 6.1 | 0.00 | 0.00 | 0.00 | 70 | 1009.2 |
| 20260506123051 | 65 | 271 | 0.9 | 4.3 | 0.00 | 0.00 | 0.00 | 72 | 1009.4 |
| 20260506121547 | 65 | 259 | 1.7 | 7.0 | 0.00 | 0.00 | 0.00 | 72 | 1009.5 |
| 20260506120052 | 65 | 222 | 2.6 | 6.1 | 0.00 | 0.00 | 0.00 | 72 | 1009.5 |
| 20260506114554 | 65 | 175 | 0.9 | 5.2 | 0.00 | 0.00 | 0.00 | 73 | 1009.6 |
| 20260506113045 | 64 | 228 | 0.9 | 6.1 | 0.00 | 0.00 | 0.00 | 74 | 1009.7 |
| 20260506111547 | 63 | 305 | 0.9 | 7.0 | 0.00 | 0.00 | 0.00 | 76 | 1009.8 |
| 20260506110048 | 63 | 113 | 0.9 | 5.2 | 0.00 | 0.00 | 0.00 | 77 | 1009.7 |
| 20260506104551 | 62 | 237 | 0.9 | 7.0 | 0.00 | 0.00 | 0.00 | 78 | 1009.6 |
| 20260506103055 | 62 | 248 | 0.9 | 6.1 | 0.00 | 0.00 | 0.00 | 79 | 1009.6 |
| 20260506101552 | 62 | 223 | 0.0 | 4.3 | 0.00 | 0.00 | 0.00 | 78 | 1009.5 |
| 20260506100105 | 62 | 170 | 0.9 | 4.3 | 0.00 | 0.00 | 0.00 | 78 | 1009.3 |
| 20260506094549 | 62 | 255 | 1.7 | 6.1 | 0.00 | 0.00 | 0.00 | 78 | 1009.3 |
| 20260506093049 | 62 | 4 | 0.9 | 4.3 | 0.00 | 0.00 | 0.00 | 78 | 1009.4 |
| 20260506091552 | 62 | 0 | 0.9 | 5.2 | 0.00 | 0.00 | 0.00 | 78 | 1009.5 |
| 20260506090048 | 63 | 0 | 0.9 | 4.3 | 0.00 | 0.00 | 0.00 | 78 | 1009.5 |
| 20260506084546 | 63 | 202 | 0.9 | 3.5 | 0.00 | 0.00 | 0.00 | 78 | 1009.7 |
| 20260506083049 | 63 | 84 | 0.0 | 4.3 | 0.00 | 0.00 | 0.00 | 77 | 1009.6 |
| 20260506081549 | 63 | 244 | 0.9 | 3.5 | 0.00 | 0.00 | 0.00 | 77 | 1009.7 |
| 20260506073054 | 63 | 201 | 0.9 | 3.5 | 0.00 | 0.00 | 0.00 | 77 | 1009.6 |
| 20260506071556 | 63 | 217 | 0.9 | 3.5 | 0.00 | 0.00 | 0.00 | 76 | 1009.8 |
| 20260506061543 | 64 | 141 | 0.9 | 4.3 | 0.00 | 0.00 | 0.00 | 73 | 1010.0 |
| 20260506044552 | 66 | 252 | 0.9 | 3.5 | 0.00 | 0.00 | 0.00 | 69 | 1010.6 |
| 20260506043052 | 66 | 236 | 0.9 | 4.3 | 0.00 | 0.00 | 0.00 | 68 | 1010.7 |
| 20260506041555 | 66 | 189 | 0.0 | 5.2 | 0.00 | 0.00 | 0.00 | 68 | 1010.6 |
| 20260506040055 | 67 | 264 | 0.9 | 5.2 | 0.00 | 0.00 | 0.00 | 67 | 1010.7 |
| 20260506034549 | 67 | 172 | 1.7 | 5.2 | 0.00 | 0.00 | 0.00 | 67 | 1010.6 |
| 20260506033047 | 67 | 259 | 0.9 | 5.2 | 0.00 | 0.00 | 0.00 | 66 | 1010.5 |
| 20260506031546 | 67 | 0 | 0.9 | 5.2 | 0.00 | 0.00 | 0.00 | 65 | 1010.6 |
| 20260506030057 | 68 | 212 | 0.9 | 6.1 | 0.00 | 0.00 | 0.00 | 63 | 1010.6 |
| 20260506024553 | 69 | 286 | 0.9 | 7.0 | 0.00 | 0.00 | 0.00 | 62 | 1010.5 |
| 20260506023050 | 69 | 107 | 1.7 | 6.1 | 0.00 | 0.00 | 0.00 | 60 | 1010.5 |
| 20260506021547 | 69 | 0 | 1.7 | 7.8 | 0.00 | 0.00 | 0.00 | 60 | 1010.6 |
| 20260506020048 | 69 | 162 | 0.9 | 7.0 | 0.00 | 0.00 | 0.00 | 60 | 1010.2 |
| 20260506014558 | 69 | 231 | 0.9 | 5.2 | 0.00 | 0.00 | 0.00 | 59 | 1010.3 |
| 20260506013045 | 70 | 175 | 0.9 | 4.3 | 0.00 | 0.00 | 0.00 | 59 | 1010.0 |
| 20260506011551 | 70 | 174 | 1.7 | 5.2 | 0.00 | 0.00 | 0.00 | 58 | 1009.8 |
| 20260506010051 | 71 | 124 | 0.9 | 4.3 | 0.00 | 0.00 | 0.00 | 58 | 1009.7 |
| 20260506004551 | 72 | 231 | 1.7 | 6.1 | 0.00 | 0.00 | 0.00 | 56 | 1009.6 |
| 20260506003049 | 73 | 164 | 1.7 | 7.0 | 0.00 | 0.00 | 0.00 | 54 | 1009.4 |
| 20260506001552 | 75 | 150 | 0.9 | 7.0 | 0.00 | 0.00 | 0.00 | 46 | 1009.2 |
| 20260506000056 | 76 | 267 | 0.9 | 8.7 | 0.00 | 0.00 | 0.00 | 44 | 1009.2 |
| 20260505234544 | 77 | 275 | 1.7 | 7.0 | 0.00 | 0.00 | 0.00 | 43 | 1009.1 |
| 20260505233045 | 78 | 214 | 1.7 | 6.1 | 0.00 | 0.00 | 0.00 | 42 | 1008.9 |
| 20260505231549 | 79 | 213 | 2.6 | 8.7 | 0.00 | 0.00 | 0.00 | 41 | 1008.7 |
| 20260505230050 | 79 | 271 | 0.9 | 7.8 | 0.00 | 0.00 | 0.00 | 39 | 1008.6 |
| 20260505224549 | 80 | 243 | 2.6 | 9.6 | 0.00 | 0.00 | 0.00 | 37 | 1008.0 |
| 20260505223052 | 80 | 270 | 1.7 | 10.4 | 0.00 | 0.00 | 0.00 | 36 | 1008.1 |
| 20260505221546 | 81 | 252 | 3.5 | 9.6 | 0.00 | 0.00 | 0.00 | 36 | 1007.8 |
| 20260505220050 | 81 | 229 | 3.5 | 9.6 | 0.00 | 0.00 | 0.00 | 35 | 1007.6 |
| 20260505214548 | 82 | 269 | 1.7 | 7.0 | 0.00 | 0.00 | 0.00 | 34 | 1007.4 |
| 20260505213048 | 82 | 278 | 3.5 | 9.6 | 0.00 | 0.00 | 0.00 | 33 | 1007.6 |
| 20260505211549 | 82 | 231 | 1.7 | 7.0 | 0.00 | 0.00 | 0.00 | 36 | 1007.5 |
| 20260505210049 | 82 | 279 | 3.5 | 9.6 | 0.00 | 0.00 | 0.00 | 34 | 1007.4 |
| 20260505204545 | 83 | 231 | 2.6 | 7.8 | 0.00 | 0.00 | 0.00 | 35 | 1007.4 |
| 20260505203052 | 83 | 265 | 0.9 | 7.0 | 0.00 | 0.00 | 0.00 | 34 | 1007.5 |